Home > Weather > Ettlingen > Past weeks

Flag for Germany Weather for the Past 2 Weeks in Ettlingen, Baden-Württemberg, Germany

Now
55 °F

Sunny.


Feels Like: 52 °F
Forecast: 45 / 74 °F
Wind: 14 mph from North

Location: Karlsruhe - Baden Wurttemberg

Current Time: May 5, 2016 at 10:59:27 AM

Latest Report: May 5, 2016 at 10:20 AM


Visibility: 10 mi

Pressure: 30.21 "Hg

Humidity: 55%

Dew Point: 39 °F

Location of EttlingenLocation

Historic Weather in Ettlingen — Graph

°F

Ettlingen Temperature Yesterday

Maximum temperature yesterday: 61 °F (at 3:50 PM)
Minimum temperature yesterday: 36 °F (at 4:50 AM)
Average temperature yesterday: 51 °F

High & Low Weather Summary for the Past Weeks

 TemperatureHumidityPressure
High70 °F (Apr 21, 3:50 PM)100% (Apr 23, 12:50 PM)30.36 "Hg (Apr 23, 12:50 PM)
Low30 °F (Apr 29, 5:20 AM)31% (May 4, 4:50 PM)29.59 "Hg (Apr 26, 5:50 AM)
Average49 °F73%30.04 "Hg
* Reported Apr 20 9:20 AM — May 5 9:20 AM, Ettlingen, Weather by CustomWeather, © 2016

Note: Actual official high and low records may vary slightly from our data, if they occured in-between our weather recording intervals... More about our weather records

Advertising

Ettlingen Weather History for the Previous 24 Hours

Scroll right to see more
 ConditionsComfort  
Time TempWeatherWind HumidityBarometerVisibility
9:20 AM
Thu, May 5
52 °FSunny.12 mph67%30.24 "Hg10 mi
8:50 AM50 °FSunny.12 mph71%30.24 "Hg10 mi
8:20 AM48 °FSunny.9 mph71%30.24 "Hg10 mi
7:50 AM45 °FSunny.9 mph76%30.24 "Hg10 mi
6:50 AM37 °FClear.8 mph87%30.24 "Hg10 mi
6:20 AM37 °FClear.9 mph87%30.24 "Hg10 mi
5:50 AM37 °FClear.9 mph87%30.24 "Hg10 mi
5:20 AM37 °FClear.9 mph87%30.24 "Hg10 mi
4:50 AM37 °FClear.7 mph87%30.27 "Hg10 mi
12:50 AM43 °FPassing clouds.6 mph76%30.27 "HgN/A
12:20 AM41 °FClear.6 mph76%30.27 "Hg10 mi
11:50 PM
Wed, May 4
43 °FClear.3 mph76%30.30 "Hg10 mi
11:20 PM46 °FClear.5 mph66%30.30 "Hg10 mi
10:50 PM46 °FClear.7 mph62%30.30 "Hg10 mi
10:20 PM48 °FClear.3 mph58%30.30 "Hg10 mi
9:50 PM48 °FClear.7 mph58%30.30 "Hg10 mi
9:20 PM48 °FSunny.7 mph58%30.27 "Hg10 mi
8:50 PM54 °FSunny.8 mph47%30.27 "Hg10 mi
8:20 PM55 °FSunny.8 mph44%30.27 "Hg10 mi
7:50 PM57 °FSunny.8 mph39%30.27 "Hg10 mi
7:20 PM59 °FSunny.9 mph34%30.27 "Hg10 mi
6:50 PM59 °FPassing clouds.9 mph34%30.30 "HgN/A
6:20 PM61 °FSunny.10 mph34%30.30 "Hg10 mi
5:50 PM61 °FSunny.10 mph34%30.30 "Hg10 mi
5:20 PM61 °FSunny.10 mph36%30.30 "Hg10 mi
4:50 PM61 °FPassing clouds.10 mph31%30.30 "HgN/A
4:20 PM61 °FPassing clouds.9 mph36%30.30 "HgN/A
3:50 PM61 °FPassing clouds.9 mph42%30.30 "HgN/A
3:20 PM59 °FSunny.8 mph45%30.33 "Hg10 mi
2:50 PM59 °FPassing clouds.9 mph45%30.33 "HgN/A
2:20 PM59 °FPassing clouds.9 mph48%30.33 "HgN/A
1:50 PM59 °FPassing clouds.9 mph45%30.33 "HgN/A
1:20 PM57 °FPassing clouds.8 mph44%30.33 "HgN/A
12:50 PM57 °FPassing clouds.10 mph44%30.36 "HgN/A
12:20 PM57 °FPassing clouds.9 mph48%30.36 "HgN/A
11:50 AM55 °FPassing clouds.10 mph63%30.36 "HgN/A
11:20 AM54 °FSunny.9 mph67%30.36 "Hg10 mi
10:50 AM54 °FPassing clouds.9 mph72%30.36 "HgN/A
10:20 AM52 °FPassing clouds.7 mph72%30.36 "HgN/A
Weather by CustomWeather, © 2016

See weather overviewHow to use our weather pages